TIANMU-1 12 (58646 NORAD) Tracking and Keplerian Element Data

This shows tracking and keplerian element data for the satellite.

Feedback or suggestion? Click here.




ElementValue
Catalog58646
NameTIANMU-1 12
Epoch Orbit289
Epoch Day13.19032905
Epoch Year2024
RAAN42.3016
Inclination97.4178
Eccentricity0.0010027
Argument of Perigee201.5476
Mean Anonmoly158.5335
Mean Motion15.13639249
Decay Rate5.721E-05
L11 58646U 23205B 24013.19032905 .00005721 00000+0 32151-3 0 9999
L22 58646 97.4178 42.3016 0010027 201.5476 158.5335 15.13639249 2890



Live tracking and technical data element details for TIANMU-1 12 (NORAD 58646). TIANMU-1 12 can be tracked NOW for your location showing map with azimuth and elevation plus other details from your city location.







IsCatalogInMostPopularTable: catalog: 58646, numindb: 22
Update: records affected: 1



GetName: 58646 TIANMU-1 12

Hit Count: updated at: Wed, 17 Apr 2024 03:34:11 GMT